This is the latest recevied weather packets stored in our database for station/object KE4EST. If no packets are shown the sender has not sent any weather packets the latest 10 day(s).
| Time | Temp. | Humidity | Pressure | Rain* | Wind** | Luminosity | Snow |
|---|---|---|---|---|---|---|---|
| 1777927876 | 24.44° C | 38% | 1014.4 hPa | 0 mm | - | 171 W/m² | - |
| 1777927574 | 24.44° C | 42% | 1014.1 hPa | 0 mm | - | 150 W/m² | - |
| 1777927273 | 24.44° C | 38% | 1014.2 hPa | 0 mm | - | 285 W/m² | - |
| 1777926971 | 24.44° C | 37% | 1014.3 hPa | 0 mm | - | 301 W/m² | - |
| 1777926668 | 24.44° C | 38% | 1014.2 hPa | 0 mm | - | 336 W/m² | - |
| 1777926363 | 24.44° C | 37% | 1014.1 hPa | 0 mm | - | 271 W/m² | - |
| 1777926060 | 24.44° C | 40% | 1014.4 hPa | 0 mm | - | 355 W/m² | - |
| 1777925757 | 25° C | 38% | 1014.4 hPa | 0 mm | - | 361 W/m² | - |
| 1777925455 | 25° C | 38% | 1014.4 hPa | 0 mm | - | 360 W/m² | - |
| 1777925151 | 24.44° C | 38% | 1014.5 hPa | 0 mm | - | 419 W/m² | - |
| 1777924848 | 25° C | 39% | 1014.7 hPa | 0 mm | - | 542 W/m² | - |
| 1777924544 | 25° C | 38% | 1014.6 hPa | 0 mm | - | 405 W/m² | - |
| 1777924240 | 26.11° C | 37% | 1014.8 hPa | 0 mm | - | 496 W/m² | - |
| 1777923937 | 26.67° C | 38% | 1014.7 hPa | 0 mm | - | 478 W/m² | - |
| 1777923633 | 26.67° C | 35% | 1014.8 hPa | 0 mm | - | 413 W/m² | - |
| 1777923329 | 25.56° C | 39% | 1014.9 hPa | 0 mm | - | 510 W/m² | - |
| 1777923028 | 24.44° C | 39% | 1015 hPa | 0 mm | - | 508 W/m² | - |
| 1777922726 | 25° C | 43% | 1014.9 hPa | 0 mm | - | 463 W/m² | - |
| 1777922424 | 24.44° C | 39% | 1015.1 hPa | 0 mm | - | 434 W/m² | - |
| 1777922121 | 25.56° C | 36% | 1015.1 hPa | 0 mm | - | 527 W/m² | - |
| 1777921818 | 26.11° C | 40% | 1015.1 hPa | 0 mm | - | 599 W/m² | - |
| 1777921514 | 25.56° C | 37% | 1015.2 hPa | 0 mm | - | 622 W/m² | - |
| 1777921210 | 25.56° C | 37% | 1015.3 hPa | 0 mm | - | 604 W/m² | - |
| 1777920907 | 25° C | 38% | 1015.3 hPa | 0 mm | - | 623 W/m² | - |
| 1777920603 | 25.56° C | 40% | 1015.4 hPa | 0 mm | - | 643 W/m² | - |
* Rain latest hour (hover to see other rain measurements)
** Current wind speed in m/s (hover to see current wind gust speed)